Regional Weather Roundup
Issued by NWS

Home | Current Version | Previous Version | Graphics & Text | Print | Product List | Glossary On
Versions: 1 2 3 4 5 6 7 8 9 10 11 12 13 14 15 16 17 18 19 20 21 22 23 24 25 26 27 28 29 30 31 32 33 34 35 36 37 38 39 40 41 42 43 44 45 46 47 48 49 50
000
ASUS43 KIND 271559
RWRIN

WEATHER ROUNDUP FOR INDIANA
NATIONAL WEATHER SERVICE INDIANAPOLIS IN
1200 PM EDT WED JUL 27 2016

NOTE: "FAIR" INDICATES FEW OR NO CLOUDS BELOW 12,000 FEET WITH NO
SIGNIFICANT WEATHER AND/OR OBSTRUCTIONS TO VISIBILITY.

* - STATION DOES NOT REPORT WEATHER SUCH AS PRECIPITATION OR FOG.

+ - STATION NOT QUALITY CONTROLLED BY THE NATIONAL WEATHER SERVICE.
    USE DATA WITH CAUTION...ESPECIALLY DEWPOINT AND RELATIVE
    HUMIDITY OBSERVATIONS.

INZ001>003-010>013-019-020-271700-
NORTHWEST INDIANA

CITY           SKY/WX    TMP DP  RH WIND       PRES   REMARKS
GARY /AIRPORT/ MOSUNNY   84  72  65 CALM      30.02S
KNOX *+        MOSUNNY   81  59  47 W3        30.02S
MONTICELLO +   SUNNY     82  64  53 CALM      30.02S
RENSSELAER +   SUNNY     81  68  65 CALM      30.03S

$$

LMZ046-743>745-271700-
SOUTHERN LAKE MICHIGAN

STATION/POSITION TIME  TEMP    WIND        PRES    WAVE
                       AIR SEA DIR/SP/G            HT
                 (UTC) (F)     (DEG/KT/KT) (MB)    (FT)
BURNS HARBOR     1500   75     320/  5/  6 1016.9S
MICHIGAN CITY    1500   74     240/  4/  5   N/A
5NW MICH CITY    1500   75 76  250/  4/  4   N/A     1

$$

INZ004-005-014>016-021>024-271700-
NORTH CENTRAL INDIANA

CITY           SKY/WX    TMP DP  RH WIND       PRES   REMARKS
ELKHART        SUNNY     81  68  65 CALM      30.04
GOSHEN         SUNNY     83  60  45 CALM      30.03S
SOUTH BEND     MOSUNNY   81  67  62 N6        30.03S

$$

INZ006>009-017-018-025>027-271700-
NORTHEAST INDIANA

CITY           SKY/WX    TMP DP  RH WIND       PRES   REMARKS
ANGOLA *+        N/A     84  66  54 VRB3      30.02S
FORT WAYNE     MOSUNNY   86  63  45 VRB3      30.03R

$$

INZ028-029-035-036-043>045-051>053-271700-
WEST CENTRAL INDIANA

CITY           SKY/WX    TMP DP  RH WIND       PRES   REMARKS
CRAWFORDSVL +  MOSUNNY   81  67  63 CALM      30.04R
LAFAYETTE      MOSUNNY   82  66  58 CALM      30.03R
TERRE HAUTE    MOSUNNY   83  68  60 S5        30.03R

$$

INZ030>032-037>040-046>048-054>057-064-065-271700-
CENTRAL INDIANA

CITY           SKY/WX    TMP DP  RH WIND       PRES   REMARKS
INDIANAPOLIS   MOSUNNY   84  64  50 CALM      30.04R
-EAGLE CREEK   SUNNY     85  64  49 CALM      30.03R
KOKOMO *+      MOSUNNY   82  64  54 E5        30.03S
SHELBYVILLE    SUNNY     84  69  60 S3        30.03R

$$

INZ033-034-041-042-049-050-058-059-271700-
EAST CENTRAL INDIANA

CITY           SKY/WX    TMP DP  RH WIND       PRES   REMARKS
MUNCIE         SUNNY     84  64  50 SW3       30.04R

$$

INZ060-061-067>069-081>083-085>088-271700-
SOUTHWEST INDIANA

CITY           SKY/WX    TMP DP  RH WIND       PRES   REMARKS
EVANSVILLE     PTSUNNY   86  75  69 S3        30.00S HX  95
HUNTINGBURG *+ PTSUNNY   84  73  70 CALM      30.00S

$$

INZ062-063-066-070>080-084-089>092-271700-
SOUTH CENTRAL AND SOUTHEAST INDIANA

CITY           SKY/WX    TMP DP  RH WIND       PRES   REMARKS
BLOOMINGTON    CLOUDY    82  71  69 VRB3      30.03F
MADISON *+     CLOUDY    81  72  74 CALM      30.04F
SEYMOUR +      CLOUDY    82  73  74 CALM      30.02F

$$




USA.gov is the U.S. government's official web portal to all federal, state and local government web resources and services.